| time (UTC) | temp F | wind direction | speed MPH | gust MPH | rain 1hr in | rain 24hr in | rain mn in | humidity % | barometer mb |
| 20260507225046 | 59 | 262 | 4.0 | 10.0 | 0.00 | 0.15 | 0.10 | 32 | 1003.5 |
| 20260507224551 | 59 | 277 | 3.0 | 11.0 | 0.00 | 0.15 | 0.10 | 32 | 1003.5 |
| 20260507224045 | 59 | 302 | 4.0 | 11.0 | 0.00 | 0.15 | 0.10 | 32 | 1003.5 |
| 20260507223545 | 60 | 279 | 4.0 | 12.0 | 0.00 | 0.15 | 0.10 | 31 | 1003.5 |
| 20260507223045 | 60 | 304 | 6.0 | 12.0 | 0.00 | 0.15 | 0.10 | 32 | 1003.5 |
| 20260507222545 | 60 | 257 | 5.0 | 10.0 | 0.00 | 0.15 | 0.10 | 33 | 1003.3 |
| 20260507222044 | 60 | 293 | 3.0 | 11.0 | 0.00 | 0.15 | 0.10 | 32 | 1003.4 |
| 20260507221547 | 60 | 46 | 2.0 | 14.0 | 0.00 | 0.15 | 0.10 | 33 | 1003.3 |
| 20260507221044 | 60 | 310 | 5.0 | 14.0 | 0.00 | 0.15 | 0.10 | 34 | 1003.3 |
| 20260507220544 | 60 | 320 | 3.0 | 10.0 | 0.00 | 0.15 | 0.10 | 33 | 1003.2 |
| 20260507220050 | 60 | 322 | 4.0 | 10.0 | 0.00 | 0.21 | 0.10 | 33 | 1003.3 |
| 20260507215544 | 60 | 309 | 4.0 | 10.0 | 0.00 | 0.21 | 0.10 | 34 | 1003.3 |
| 20260507215043 | 61 | 322 | 2.0 | 9.0 | 0.00 | 0.21 | 0.10 | 33 | 1003.2 |
| 20260507214544 | 61 | 277 | 4.0 | 9.0 | 0.00 | 0.21 | 0.10 | 33 | 1003.2 |
| 20260507214043 | 61 | 327 | 4.0 | 12.0 | 0.00 | 0.21 | 0.10 | 34 | 1003.3 |
| 20260507213543 | 61 | 257 | 4.0 | 12.0 | 0.00 | 0.21 | 0.10 | 34 | 1003.2 |
| 20260507213044 | 61 | 317 | 3.0 | 10.0 | 0.00 | 0.21 | 0.10 | 35 | 1003.2 |
| 20260507212542 | 61 | 262 | 4.0 | 17.0 | 0.00 | 0.21 | 0.10 | 33 | 1003.2 |
| 20260507212042 | 61 | 323 | 7.0 | 17.0 | 0.00 | 0.21 | 0.10 | 33 | 1003.1 |
| 20260507211544 | 61 | 295 | 6.0 | 17.0 | 0.00 | 0.21 | 0.10 | 33 | 1003.2 |
| 20260507211041 | 61 | 284 | 3.0 | 13.0 | 0.00 | 0.21 | 0.10 | 34 | 1003.1 |
| 20260507210543 | 61 | 311 | 4.0 | 11.0 | 0.00 | 0.21 | 0.10 | 34 | 1003.1 |
| 20260507210048 | 61 | 286 | 3.0 | 11.0 | 0.00 | 0.25 | 0.10 | 33 | 1003.0 |
| 20260507205541 | 61 | 285 | 4.0 | 10.0 | 0.00 | 0.25 | 0.10 | 35 | 1003.1 |
| 20260507205041 | 61 | 292 | 5.0 | 10.0 | 0.00 | 0.25 | 0.10 | 34 | 1003.1 |
| 20260507204540 | 61 | 264 | 4.0 | 10.0 | 0.00 | 0.25 | 0.10 | 34 | 1003.0 |
| 20260507204042 | 61 | 307 | 4.0 | 11.0 | 0.00 | 0.25 | 0.10 | 34 | 1003.0 |
| 20260507203539 | 61 | 247 | 5.0 | 14.0 | 0.00 | 0.25 | 0.10 | 34 | 1003.0 |
| 20260507203140 | 61 | 328 | 7.0 | 14.0 | 0.00 | 0.25 | 0.10 | 34 | 1003.0 |
| 20260507202542 | 61 | 279 | 3.0 | 13.0 | 0.00 | 0.25 | 0.10 | 34 | 1003.0 |
| 20260507202043 | 61 | 332 | 5.0 | 12.0 | 0.00 | 0.25 | 0.10 | 34 | 1003.0 |
| 20260507201538 | 61 | 355 | 4.0 | 13.0 | 0.00 | 0.25 | 0.10 | 34 | 1003.0 |
| 20260507201039 | 61 | 297 | 6.0 | 13.0 | 0.00 | 0.25 | 0.10 | 34 | 1003.0 |
| 20260507200540 | 61 | 311 | 4.0 | 13.0 | 0.00 | 0.25 | 0.10 | 36 | 1003.2 |
| 20260507200037 | 61 | 293 | 4.0 | 13.0 | 0.00 | 0.31 | 0.10 | 34 | 1003.0 |
| 20260507195542 | 61 | 327 | 5.0 | 14.0 | 0.00 | 0.31 | 0.10 | 34 | 1003.1 |
| 20260507195037 | 61 | 266 | 4.0 | 14.0 | 0.00 | 0.31 | 0.10 | 35 | 1003.0 |
| 20260507194537 | 61 | 300 | 5.0 | 13.0 | 0.00 | 0.31 | 0.10 | 37 | 1003.0 |
| 20260507194035 | 61 | 278 | 6.0 | 14.0 | 0.00 | 0.31 | 0.10 | 35 | 1002.9 |
| 20260507193536 | 61 | 279 | 6.0 | 14.0 | 0.00 | 0.31 | 0.10 | 33 | 1003.2 |
| 20260507193039 | 61 | 252 | 6.0 | 15.0 | 0.00 | 0.31 | 0.10 | 34 | 1003.3 |
| 20260507192535 | 61 | 273 | 6.0 | 14.0 | 0.00 | 0.31 | 0.10 | 35 | 1003.2 |
| 20260507192035 | 61 | 263 | 6.0 | 14.0 | 0.00 | 0.31 | 0.10 | 35 | 1003.3 |
| 20260507191538 | 61 | 247 | 5.0 | 19.0 | 0.00 | 0.31 | 0.10 | 38 | 1003.4 |
| 20260507191033 | 61 | 48 | 8.0 | 19.0 | 0.00 | 0.31 | 0.10 | 39 | 1003.3 |
| 20260507190534 | 61 | 275 | 5.0 | 13.0 | 0.00 | 0.31 | 0.10 | 42 | 1003.2 |
| 20260507190033 | 61 | 262 | 5.0 | 13.0 | 0.00 | 0.31 | 0.10 | 41 | 1003.3 |
| 20260507185532 | 61 | 246 | 4.0 | 13.0 | 0.00 | 0.31 | 0.10 | 43 | 1003.2 |
| 20260507185031 | 61 | 327 | 4.0 | 14.0 | 0.00 | 0.31 | 0.10 | 45 | 1003.3 |
| 20260507184632 | 61 | 261 | 5.0 | 16.0 | 0.00 | 0.31 | 0.10 | 44 | 1003.2 |
| 20260507184032 | 61 | 302 | 8.0 | 16.0 | 0.00 | 0.31 | 0.10 | 46 | 1003.2 |
| 20260507183531 | 61 | 288 | 6.0 | 12.0 | 0.00 | 0.31 | 0.10 | 44 | 1003.3 |
| 20260507183034 | 61 | 254 | 3.0 | 11.0 | 0.00 | 0.31 | 0.10 | 46 | 1003.3 |
| 20260507182531 | 61 | 270 | 5.0 | 10.0 | 0.00 | 0.31 | 0.10 | 46 | 1003.3 |
| 20260507182031 | 60 | 211 | 5.0 | 11.0 | 0.00 | 0.31 | 0.10 | 46 | 1003.3 |
| 20260507181529 | 59 | 223 | 5.0 | 11.0 | 0.00 | 0.31 | 0.10 | 47 | 1003.2 |
| 20260507181028 | 58 | 271 | 5.0 | 11.0 | 0.00 | 0.31 | 0.10 | 52 | 1003.4 |
| 20260507180528 | 58 | 292 | 2.0 | 7.0 | 0.00 | 0.31 | 0.10 | 57 | 1003.5 |
| 20260507180026 | 57 | 261 | 3.0 | 7.0 | 0.00 | 0.31 | 0.10 | 58 | 1003.4 |
| 20260507175529 | 57 | 227 | 2.0 | 8.0 | 0.00 | 0.31 | 0.10 | 61 | 1003.5 |
| 20260507175026 | 56 | 230 | 1.0 | 5.0 | 0.00 | 0.31 | 0.10 | 68 | 1003.6 |
| 20260507174535 | 56 | 137 | 1.0 | 5.0 | 0.00 | 0.31 | 0.10 | 68 | 1003.5 |
| 20260507174029 | 56 | 150 | 1.0 | 8.0 | 0.00 | 0.31 | 0.10 | 67 | 1003.5 |
| 20260507173626 | 56 | 157 | 3.0 | 8.0 | 0.00 | 0.31 | 0.10 | 66 | 1003.6 |
| 20260507173048 | 56 | 192 | 3.0 | 8.0 | 0.00 | 0.31 | 0.10 | 66 | 1003.8 |
| 20260507172526 | 56 | 153 | 1.0 | 10.0 | 0.00 | 0.31 | 0.10 | 67 | 1003.7 |
| 20260507172026 | 56 | 148 | 3.0 | 8.0 | 0.00 | 0.31 | 0.10 | 69 | 1003.8 |
| 20260507171527 | 55 | 172 | 5.0 | 8.0 | 0.00 | 0.31 | 0.10 | 66 | 1004.1 |
| 20260507171025 | 56 | 166 | 3.0 | 9.0 | 0.00 | 0.31 | 0.10 | 65 | 1004.2 |
| 20260507170525 | 56 | 150 | 4.0 | 9.0 | 0.00 | 0.31 | 0.10 | 66 | 1004.2 |
| 20260507170025 | 56 | 90 | 4.0 | 13.0 | 0.00 | 0.31 | 0.10 | 65 | 1004.2 |
| 20260507165523 | 56 | 120 | 3.0 | 13.0 | 0.00 | 0.31 | 0.10 | 64 | 1004.3 |
| 20260507165023 | 57 | 240 | 5.0 | 18.0 | 0.00 | 0.31 | 0.10 | 63 | 1004.2 |
| 20260507164523 | 57 | 174 | 5.0 | 18.0 | 0.00 | 0.31 | 0.10 | 64 | 1004.2 |
| 20260507164024 | 57 | 219 | 6.0 | 11.0 | 0.00 | 0.31 | 0.10 | 66 | 1004.3 |
| 20260507163527 | 57 | 152 | 6.0 | 11.0 | 0.00 | 0.31 | 0.10 | 67 | 1004.3 |
| 20260507163026 | 56 | 161 | 2.0 | 9.0 | 0.00 | 0.31 | 0.10 | 69 | 1004.4 |
| 20260507162528 | 56 | 163 | 5.0 | 11.0 | 0.00 | 0.31 | 0.10 | 68 | 1004.5 |
| 20260507162023 | 57 | 132 | 4.0 | 11.0 | 0.00 | 0.31 | 0.10 | 68 | 1004.5 |
| 20260507161523 | 57 | 175 | 4.0 | 8.0 | 0.00 | 0.31 | 0.10 | 69 | 1004.5 |
| 20260507161023 | 57 | 110 | 2.0 | 7.0 | 0.00 | 0.31 | 0.10 | 68 | 1004.5 |
| 20260507160523 | 57 | 159 | 3.0 | 9.0 | 0.00 | 0.31 | 0.10 | 66 | 1004.7 |
| 20260507160025 | 59 | 150 | 3.0 | 9.0 | 0.00 | 0.31 | 0.10 | 65 | 1004.9 |
| 20260507155525 | 59 | 192 | 2.0 | 9.0 | 0.00 | 0.31 | 0.10 | 66 | 1005.0 |
| 20260507155022 | 60 | 71 | 2.0 | 11.0 | 0.00 | 0.31 | 0.10 | 62 | 1005.0 |
| 20260507154525 | 61 | 157 | 5.0 | 11.0 | 0.00 | 0.31 | 0.10 | 64 | 1005.1 |
| 20260507154021 | 61 | 198 | 5.0 | 11.0 | 0.00 | 0.31 | 0.10 | 62 | 1005.0 |
| 20260507153522 | 62 | 167 | 5.0 | 11.0 | 0.00 | 0.31 | 0.10 | 60 | 1005.0 |
| 20260507153019 | 62 | 231 | 3.0 | 8.0 | 0.00 | 0.31 | 0.10 | 58 | 1005.1 |
| 20260507152518 | 62 | 265 | 2.0 | 6.0 | 0.00 | 0.31 | 0.10 | 55 | 1005.0 |
| 20260507152026 | 61 | 57 | 1.0 | 5.0 | 0.00 | 0.31 | 0.10 | 54 | 1005.0 |
| 20260507151516 | 61 | 297 | 2.0 | 8.0 | 0.00 | 0.31 | 0.10 | 56 | 1005.1 |
| 20260507151014 | 61 | 12 | 1.0 | 8.0 | 0.00 | 0.31 | 0.10 | 54 | 1005.1 |
| 20260507150518 | 60 | 248 | 1.0 | 6.0 | 0.00 | 0.31 | 0.10 | 56 | 1005.2 |
| 20260507150016 | 60 | 242 | 2.0 | 5.0 | 0.00 | 0.31 | 0.10 | 54 | 1005.1 |
| 20260507145511 | 60 | 293 | 2.0 | 9.0 | 0.00 | 0.31 | 0.10 | 57 | 1005.1 |
| 20260507145016 | 59 | 263 | 2.0 | 9.0 | 0.00 | 0.31 | 0.10 | 55 | 1005.3 |
| 20260507144508 | 59 | 245 | 2.0 | 5.0 | 0.00 | 0.31 | 0.10 | 56 | 1005.1 |
| 20260507144007 | 59 | 267 | 2.0 | 7.0 | 0.00 | 0.31 | 0.10 | 57 | 1005.2 |
| 20260507143510 | 59 | 254 | 2.0 | 7.0 | 0.00 | 0.31 | 0.10 | 55 | 1005.3 |
| 20260507143005 | 59 | 339 | 3.0 | 6.0 | 0.00 | 0.31 | 0.10 | 57 | 1005.4 |
| 20260507142503 | 59 | 194 | 3.0 | 8.0 | 0.00 | 0.31 | 0.10 | 61 | 1005.5 |
| 20260507142001 | 58 | 262 | 3.0 | 8.0 | 0.00 | 0.31 | 0.10 | 60 | 1005.5 |
| 20260507141500 | 58 | 337 | 1.0 | 9.0 | 0.00 | 0.31 | 0.10 | 62 | 1005.6 |
| 20260507141100 | 57 | 273 | 2.0 | 9.0 | 0.00 | 0.31 | 0.10 | 61 | 1005.6 |
| 20260507140558 | 57 | 316 | 3.0 | 8.0 | 0.00 | 0.31 | 0.10 | 60 | 1005.7 |
| 20260507140056 | 57 | 268 | 2.0 | 8.0 | 0.00 | 0.31 | 0.10 | 64 | 1005.7 |
| 20260507135600 | 57 | 270 | 3.0 | 9.0 | 0.00 | 0.31 | 0.10 | 63 | 1005.7 |
| 20260507135054 | 57 | 263 | 5.0 | 9.0 | 0.00 | 0.31 | 0.10 | 64 | 1005.7 |
| 20260507134555 | 57 | 327 | 2.0 | 9.0 | 0.00 | 0.31 | 0.10 | 64 | 1005.7 |
| 20260507134051 | 56 | 269 | 2.0 | 9.0 | 0.00 | 0.31 | 0.10 | 64 | 1005.7 |
| 20260507133550 | 56 | 213 | 3.0 | 8.0 | 0.00 | 0.31 | 0.10 | 66 | 1005.7 |
| 20260507133125 | 56 | 268 | 4.0 | 8.0 | 0.00 | 0.31 | 0.10 | 66 | 1005.7 |
| 20260507132546 | 56 | 320 | 2.0 | 9.0 | 0.00 | 0.31 | 0.10 | 67 | 1005.8 |
| 20260507132046 | 56 | 263 | 3.0 | 9.0 | 0.00 | 0.31 | 0.10 | 67 | 1005.9 |
| 20260507131547 | 56 | 307 | 2.0 | 5.0 | 0.00 | 0.31 | 0.10 | 69 | 1005.8 |
| 20260507131043 | 55 | 290 | 2.0 | 8.0 | 0.00 | 0.31 | 0.10 | 69 | 1005.8 |
| 20260507130541 | 55 | 335 | 5.0 | 9.0 | 0.00 | 0.31 | 0.10 | 68 | 1005.8 |
| 20260507130053 | 55 | 296 | 2.0 | 7.0 | 0.00 | 0.31 | 0.10 | 70 | 1005.9 |
| 20260507125540 | 54 | 327 | 2.0 | 6.0 | 0.00 | 0.31 | 0.10 | 69 | 1005.9 |
| 20260507125038 | 54 | 272 | 3.0 | 8.0 | 0.00 | 0.31 | 0.10 | 71 | 1006.0 |
| 20260507124536 | 54 | 327 | 3.0 | 8.0 | 0.00 | 0.31 | 0.10 | 70 | 1006.1 |
| 20260507124035 | 53 | 277 | 2.0 | 8.0 | 0.00 | 0.31 | 0.10 | 71 | 1006.1 |
| 20260507123536 | 53 | 267 | 4.0 | 8.0 | 0.00 | 0.31 | 0.10 | 71 | 1006.2 |
| 20260507123039 | 53 | 301 | 3.0 | 6.0 | 0.00 | 0.31 | 0.10 | 72 | 1006.1 |
| 20260507122532 | 52 | 283 | 3.0 | 10.0 | 0.00 | 0.31 | 0.10 | 71 | 1006.1 |
| 20260507122029 | 52 | 319 | 2.0 | 10.0 | 0.00 | 0.31 | 0.10 | 73 | 1006.1 |
| 20260507121530 | 51 | 327 | 2.0 | 6.0 | 0.00 | 0.31 | 0.10 | 73 | 1006.0 |
| 20260507121029 | 51 | 338 | 3.0 | 8.0 | 0.00 | 0.31 | 0.10 | 75 | 1005.9 |
| 20260507120528 | 51 | 310 | 3.0 | 8.0 | 0.00 | 0.31 | 0.10 | 77 | 1006.0 |
| 20260507120033 | 50 | 327 | 2.0 | 12.0 | 0.00 | 0.31 | 0.10 | 78 | 1006.1 |
| 20260507115528 | 50 | 321 | 5.0 | 12.0 | 0.00 | 0.31 | 0.10 | 78 | 1006.1 |
| 20260507115027 | 49 | 322 | 4.0 | 9.0 | 0.00 | 0.31 | 0.10 | 79 | 1005.9 |
| 20260507114526 | 49 | 346 | 3.0 | 8.0 | 0.00 | 0.31 | 0.10 | 81 | 1006.0 |
| 20260507114026 | 48 | 360 | 4.0 | 8.0 | 0.00 | 0.31 | 0.10 | 80 | 1005.9 |
| 20260507113528 | 48 | 309 | 3.0 | 8.0 | 0.00 | 0.31 | 0.10 | 81 | 1006.0 |
| 20260507113033 | 48 | 284 | 3.0 | 10.0 | 0.00 | 0.31 | 0.10 | 81 | 1005.9 |
| 20260507112526 | 48 | 321 | 4.0 | 8.0 | 0.00 | 0.31 | 0.10 | 82 | 1006.2 |
| 20260507112029 | 48 | 314 | 3.0 | 9.0 | 0.00 | 0.31 | 0.10 | 83 | 1006.1 |
| 20260507111524 | 48 | 309 | 4.0 | 9.0 | 0.00 | 0.31 | 0.10 | 83 | 1006.1 |
| 20260507111025 | 48 | 321 | 3.0 | 8.0 | 0.00 | 0.31 | 0.10 | 84 | 1006.1 |
| 20260507110525 | 48 | 308 | 2.0 | 8.0 | 0.00 | 0.31 | 0.10 | 84 | 1006.2 |
| 20260507110029 | 48 | 323 | 1.0 | 5.0 | 0.00 | 0.31 | 0.10 | 84 | 1006.3 |
| 20260507105523 | 47 | 311 | 2.0 | 6.0 | 0.00 | 0.31 | 0.10 | 84 | 1006.1 |
| 20260507105022 | 47 | 342 | 2.0 | 6.0 | 0.00 | 0.31 | 0.10 | 84 | 1006.0 |
| 20260507104522 | 47 | 317 | 2.0 | 5.0 | 0.00 | 0.31 | 0.10 | 84 | 1006.3 |
| 20260507104022 | 47 | 327 | 1.0 | 6.0 | 0.00 | 0.31 | 0.10 | 83 | 1006.5 |
| 20260507103520 | 47 | 323 | 2.0 | 8.0 | 0.00 | 0.31 | 0.10 | 83 | 1006.3 |
| 20260507103021 | 47 | 317 | 3.0 | 9.0 | 0.00 | 0.31 | 0.10 | 83 | 1006.3 |
| 20260507102519 | 47 | 312 | 4.0 | 9.0 | 0.00 | 0.31 | 0.10 | 84 | 1006.3 |
| 20260507102018 | 47 | 329 | 1.0 | 8.0 | 0.00 | 0.31 | 0.10 | 84 | 1006.5 |
| 20260507101527 | 47 | 332 | 3.0 | 8.0 | 0.00 | 0.31 | 0.10 | 84 | 1006.1 |
| 20260507101117 | 47 | 329 | 4.0 | 8.0 | 0.00 | 0.31 | 0.10 | 84 | 1006.2 |
| 20260507100516 | 47 | 283 | 2.0 | 5.0 | 0.00 | 0.31 | 0.10 | 85 | 1006.2 |
| 20260507100021 | 47 | 309 | 1.0 | 5.0 | 0.00 | 0.31 | 0.10 | 85 | 1006.3 |
| 20260507095516 | 47 | 279 | 2.0 | 9.0 | 0.00 | 0.31 | 0.10 | 85 | 1006.2 |
| 20260507095014 | 47 | 336 | 3.0 | 9.0 | 0.01 | 0.31 | 0.10 | 85 | 1005.8 |
| 20260507094513 | 47 | 341 | 2.0 | 8.0 | 0.01 | 0.31 | 0.10 | 84 | 1005.6 |
| 20260507094020 | 47 | 323 | 3.0 | 9.0 | 0.01 | 0.31 | 0.10 | 84 | 1005.5 |
| 20260507093512 | 47 | 306 | 5.0 | 9.0 | 0.01 | 0.31 | 0.10 | 85 | 1006.0 |
| 20260507093011 | 47 | 306 | 5.0 | 9.0 | 0.01 | 0.31 | 0.10 | 85 | 1005.8 |
| 20260507092511 | 47 | 336 | 4.0 | 8.0 | 0.01 | 0.31 | 0.10 | 85 | 1005.3 |
| 20260507092010 | 47 | 324 | 3.0 | 8.0 | 0.01 | 0.31 | 0.10 | 85 | 1005.1 |
| 20260507091512 | 47 | 355 | 3.0 | 11.0 | 0.01 | 0.31 | 0.10 | 85 | 1005.2 |
| 20260507091009 | 48 | 334 | 5.0 | 11.0 | 0.01 | 0.31 | 0.10 | 85 | 1005.5 |
| 20260507090509 | 48 | 326 | 4.0 | 10.0 | 0.01 | 0.31 | 0.10 | 84 | 1005.7 |
| 20260507090010 | 48 | 292 | 4.0 | 9.0 | 0.01 | 0.31 | 0.10 | 85 | 1005.6 |
| 20260507085506 | 48 | 317 | 4.0 | 11.0 | 0.01 | 0.31 | 0.10 | 84 | 1005.5 |
| 20260507085006 | 48 | 327 | 5.0 | 11.0 | 0.00 | 0.30 | 0.09 | 83 | 1005.5 |
| 20260507084504 | 48 | 326 | 4.0 | 12.0 | 0.00 | 0.30 | 0.09 | 83 | 1006.0 |
| 20260507084004 | 48 | 355 | 7.0 | 12.0 | 0.00 | 0.30 | 0.09 | 84 | 1005.9 |
| 20260507083503 | 48 | 329 | 3.0 | 13.0 | 0.00 | 0.30 | 0.09 | 84 | 1005.7 |
| 20260507083003 | 49 | 301 | 7.0 | 13.0 | 0.00 | 0.30 | 0.09 | 84 | 1005.6 |
| 20260507082502 | 49 | 325 | 6.0 | 12.0 | 0.00 | 0.30 | 0.09 | 85 | 1005.2 |
| 20260507082002 | 49 | 17 | 3.0 | 13.0 | 0.00 | 0.30 | 0.09 | 86 | 1005.0 |
| 20260507081501 | 49 | 300 | 6.0 | 14.0 | 0.00 | 0.30 | 0.09 | 86 | 1005.1 |
| 20260507081104 | 49 | 338 | 4.0 | 14.0 | 0.00 | 0.30 | 0.09 | 87 | 1005.0 |
| 20260507080559 | 49 | 314 | 4.0 | 11.0 | 0.00 | 0.30 | 0.09 | 88 | 1005.4 |
| 20260507080059 | 49 | 295 | 2.0 | 11.0 | 0.00 | 0.30 | 0.09 | 88 | 1005.4 |
| 20260507075557 | 49 | 283 | 4.0 | 11.0 | 0.00 | 0.30 | 0.09 | 89 | 1005.2 |
| 20260507075056 | 49 | 320 | 6.0 | 10.0 | 0.00 | 0.30 | 0.09 | 90 | 1005.2 |
| 20260507074557 | 49 | 321 | 6.0 | 12.0 | 0.00 | 0.30 | 0.09 | 90 | 1005.0 |
| 20260507074054 | 49 | 322 | 5.0 | 11.0 | 0.00 | 0.30 | 0.09 | 92 | 1004.9 |
| 20260507073554 | 49 | 259 | 5.0 | 11.0 | 0.00 | 0.30 | 0.09 | 92 | 1005.0 |
| 20260507073103 | 49 | 342 | 3.0 | 10.0 | 0.00 | 0.30 | 0.09 | 92 | 1005.1 |
| 20260507072553 | 49 | 316 | 4.0 | 10.0 | 0.00 | 0.30 | 0.09 | 93 | 1005.0 |
| 20260507072053 | 49 | 324 | 5.0 | 10.0 | 0.00 | 0.30 | 0.09 | 93 | 1004.7 |
| 20260507071551 | 49 | 284 | 3.0 | 9.0 | 0.00 | 0.30 | 0.09 | 93 | 1004.7 |
| 20260507071051 | 49 | 325 | 4.0 | 9.0 | 0.00 | 0.30 | 0.09 | 94 | 1004.7 |
| 20260507070552 | 49 | 315 | 3.0 | 8.0 | 0.00 | 0.30 | 0.09 | 94 | 1004.9 |
| 20260507070057 | 49 | 312 | 3.0 | 5.0 | 0.00 | 0.30 | 0.09 | 94 | 1004.6 |
| 20260507065549 | 50 | 303 | 2.0 | 5.0 | 0.00 | 0.30 | 0.09 | 94 | 1004.7 |
| 20260507065048 | 50 | 319 | 1.0 | 3.0 | 0.00 | 0.30 | 0.09 | 94 | 1004.8 |
| 20260507064553 | 50 | 319 | 0.0 | 3.0 | 0.00 | 0.30 | 0.09 | 94 | 1004.9 |
| 20260507064047 | 50 | 319 | 1.0 | 4.0 | 0.00 | 0.30 | 0.09 | 94 | 1004.2 |
| 20260507063547 | 50 | 313 | 1.0 | 4.0 | 0.00 | 0.30 | 0.09 | 94 | 1004.2 |
| 20260507063046 | 50 | 303 | 0.0 | 4.0 | 0.00 | 0.30 | 0.09 | 94 | 1004.4 |
| 20260507062546 | 50 | 301 | 1.0 | 4.0 | 0.00 | 0.30 | 0.09 | 94 | 1004.4 |
| 20260507062045 | 50 | 315 | 1.0 | 8.0 | 0.00 | 0.30 | 0.09 | 94 | 1004.0 |
| 20260507061545 | 50 | 329 | 1.0 | 8.0 | 0.00 | 0.30 | 0.09 | 94 | 1003.9 |
| 20260507061044 | 50 | 313 | 2.0 | 8.0 | 0.01 | 0.30 | 0.09 | 94 | 1004.1 |
| 20260507060545 | 50 | 296 | 3.0 | 8.0 | 0.01 | 0.30 | 0.09 | 94 | 1004.0 |
| 20260507060053 | 50 | 350 | 4.0 | 10.0 | 0.01 | 0.30 | 0.09 | 95 | 1004.1 |
| 20260507055543 | 50 | 315 | 4.0 | 10.0 | 0.01 | 0.30 | 0.09 | 95 | 1004.1 |
| 20260507055042 | 50 | 23 | 4.0 | 10.0 | 0.01 | 0.30 | 0.09 | 95 | 1003.7 |
| 20260507054543 | 50 | 355 | 3.0 | 13.0 | 0.01 | 0.30 | 0.09 | 95 | 1003.8 |
| 20260507054041 | 50 | 12 | 5.0 | 13.0 | 0.01 | 0.30 | 0.09 | 95 | 1004.0 |
| 20260507053541 | 50 | 298 | 2.0 | 10.0 | 0.01 | 0.30 | 0.09 | 95 | 1004.2 |
| 20260507053040 | 51 | 319 | 4.0 | 11.0 | 0.02 | 0.30 | 0.09 | 96 | 1004.1 |
| 20260507052540 | 51 | 319 | 5.0 | 13.0 | 0.05 | 0.30 | 0.09 | 96 | 1004.1 |
| 20260507052037 | 51 | 30 | 7.0 | 14.0 | 0.06 | 0.30 | 0.09 | 96 | 1004.0 |
| 20260507051537 | 52 | 348 | 6.0 | 14.0 | 0.07 | 0.30 | 0.09 | 96 | 1003.7 |
| 20260507051035 | 52 | 335 | 3.0 | 9.0 | 0.08 | 0.28 | 0.08 | 96 | 1004.0 |
| 20260507050535 | 52 | 340 | 3.0 | 12.0 | 0.08 | 0.28 | 0.08 | 96 | 1003.9 |
| 20260507050036 | 52 | 298 | 6.0 | 12.0 | 0.08 | 0.28 | 0.08 | 97 | 1004.0 |
| 20260507045535 | 52 | 315 | 5.0 | 11.0 | 0.08 | 0.28 | 0.08 | 97 | 1003.7 |
| 20260507045033 | 52 | 311 | 2.0 | 9.0 | 0.09 | 0.28 | 0.08 | 96 | 1003.8 |
| 20260507044532 | 52 | 316 | 2.0 | 5.0 | 0.09 | 0.28 | 0.08 | 96 | 1003.6 |
| 20260507044035 | 52 | 312 | 2.0 | 5.0 | 0.09 | 0.28 | 0.08 | 96 | 1003.5 |
| 20260507043533 | 52 | 341 | 2.0 | 5.0 | 0.09 | 0.28 | 0.08 | 96 | 1003.4 |
| 20260507043032 | 52 | 296 | 2.0 | 17.0 | 0.07 | 0.27 | 0.06 | 96 | 1003.5 |
| 20260507042531 | 52 | 334 | 8.0 | 17.0 | 0.05 | 0.25 | 0.04 | 97 | 1003.9 |
| 20260507042033 | 52 | 261 | 3.0 | 6.0 | 0.04 | 0.24 | 0.03 | 97 | 1003.5 |
| 20260507041529 | 52 | 247 | 3.0 | 6.0 | 0.03 | 0.23 | 0.02 | 97 | 1003.3 |
| 20260507041029 | 51 | 277 | 3.0 | 7.0 | 0.01 | 0.21 | 0.00 | 96 | 1003.6 |
| 20260507040527 | 51 | 236 | 3.0 | 7.0 | 0.01 | 0.21 | 0.00 | 96 | 1003.4 |
| 20260507040025 | 51 | 208 | 3.0 | 7.0 | 0.01 | 0.21 | 0.21 | 96 | 1003.2 |
| 20260507035531 | 51 | 192 | 2.0 | 7.0 | 0.01 | 0.21 | 0.21 | 96 | 1003.1 |
| 20260507035026 | 50 | 217 | 3.0 | 11.0 | 0.00 | 0.20 | 0.20 | 96 | 1003.0 |
| 20260507034524 | 51 | 158 | 4.0 | 11.0 | 0.00 | 0.20 | 0.20 | 96 | 1003.0 |
| 20260507034027 | 51 | 231 | 3.0 | 8.0 | 0.00 | 0.20 | 0.20 | 96 | 1003.1 |
| 20260507033524 | 51 | 164 | 3.0 | 6.0 | 0.01 | 0.20 | 0.20 | 96 | 1003.0 |
| 20260507033030 | 51 | 169 | 2.0 | 6.0 | 0.01 | 0.20 | 0.20 | 96 | 1003.0 |
| 20260507032523 | 51 | 217 | 2.0 | 7.0 | 0.01 | 0.20 | 0.20 | 96 | 1003.2 |
| 20260507032029 | 51 | 160 | 1.0 | 6.0 | 0.01 | 0.20 | 0.20 | 96 | 1003.1 |
| 20260507031529 | 51 | 260 | 2.0 | 7.0 | 0.01 | 0.20 | 0.20 | 96 | 1003.1 |
| 20260507031023 | 51 | 192 | 2.0 | 6.0 | 0.01 | 0.20 | 0.20 | 96 | 1003.1 |
| 20260507030522 | 51 | 162 | 2.0 | 8.0 | 0.01 | 0.20 | 0.20 | 96 | 1003.0 |
| 20260507030022 | 50 | 175 | 3.0 | 10.0 | 0.01 | 0.20 | 0.20 | 96 | 1003.3 |
| 20260507025521 | 51 | 183 | 5.0 | 10.0 | 0.01 | 0.20 | 0.20 | 96 | 1003.1 |
| 20260507025025 | 50 | 180 | 5.0 | 11.0 | 0.01 | 0.20 | 0.20 | 96 | 1003.2 |
| 20260507024522 | 50 | 173 | 4.0 | 14.0 | 0.01 | 0.20 | 0.20 | 96 | 1003.2 |
| 20260507024121 | 50 | 175 | 5.0 | 13.0 | 0.01 | 0.20 | 0.20 | 96 | 1003.1 |
| 20260507023519 | 50 | 163 | 3.0 | 11.0 | 0.00 | 0.19 | 0.19 | 96 | 1003.2 |
| 20260507023020 | 50 | 179 | 4.0 | 14.0 | 0.00 | 0.19 | 0.19 | 96 | 1003.3 |
| 20260507022520 | 50 | 150 | 5.0 | 13.0 | 0.00 | 0.19 | 0.19 | 96 | 1003.4 |
| 20260507022019 | 50 | 249 | 7.0 | 15.0 | 0.01 | 0.19 | 0.19 | 96 | 1003.5 |
| 20260507021518 | 50 | 182 | 6.0 | 15.0 | 0.01 | 0.19 | 0.19 | 96 | 1003.5 |
| 20260507021017 | 50 | 200 | 8.0 | 14.0 | 0.02 | 0.19 | 0.19 | 96 | 1003.5 |
| 20260507020517 | 50 | 207 | 7.0 | 15.0 | 0.02 | 0.19 | 0.19 | 96 | 1003.6 |
| 20260507020021 | 50 | 212 | 6.0 | 19.0 | 0.02 | 0.19 | 0.19 | 96 | 1003.6 |
| 20260507015515 | 50 | 158 | 8.0 | 19.0 | 0.02 | 0.19 | 0.19 | 96 | 1003.7 |
| 20260507015014 | 50 | 203 | 7.0 | 18.0 | 0.02 | 0.19 | 0.19 | 96 | 1003.8 |
| 20260507014513 | 50 | 176 | 8.0 | 18.0 | 0.02 | 0.19 | 0.19 | 96 | 1003.8 |
| 20260507014013 | 50 | 201 | 6.0 | 14.0 | 0.02 | 0.19 | 0.19 | 96 | 1004.0 |
| 20260507013513 | 50 | 200 | 7.0 | 14.0 | 0.02 | 0.19 | 0.19 | 96 | 1003.9 |
| 20260507013016 | 50 | 173 | 6.0 | 20.0 | 0.03 | 0.19 | 0.19 | 95 | 1003.8 |
| 20260507012513 | 50 | 157 | 8.0 | 20.0 | 0.03 | 0.19 | 0.19 | 95 | 1003.8 |
| 20260507012011 | 50 | 234 | 7.0 | 16.0 | 0.02 | 0.18 | 0.18 | 95 | 1003.9 |
| 20260507011524 | 50 | 233 | 7.0 | 13.0 | 0.02 | 0.18 | 0.18 | 95 | 1004.1 |
| 20260507011009 | 49 | 186 | 5.0 | 19.0 | 0.01 | 0.17 | 0.17 | 95 | 1004.0 |
| 20260507010510 | 50 | 172 | 5.0 | 19.0 | 0.01 | 0.17 | 0.17 | 95 | 1004.0 |
| 20260507010009 | 50 | 243 | 5.0 | 19.0 | 0.01 | 0.17 | 0.17 | 95 | 1003.9 |
| 20260507005508 | 50 | 138 | 6.0 | 16.0 | 0.01 | 0.17 | 0.17 | 95 | 1003.9 |
| 20260507005010 | 50 | 238 | 6.0 | 16.0 | 0.01 | 0.17 | 0.17 | 95 | 1004.0 |
| 20260507004507 | 50 | 153 | 7.0 | 18.0 | 0.01 | 0.17 | 0.17 | 95 | 1003.9 |
| 20260507004007 | 50 | 112 | 7.0 | 16.0 | 0.01 | 0.17 | 0.17 | 95 | 1004.0 |
| 20260507003506 | 50 | 170 | 6.0 | 16.0 | 0.01 | 0.17 | 0.17 | 95 | 1004.1 |
| 20260507003005 | 50 | 145 | 7.0 | 14.0 | 0.00 | 0.16 | 0.16 | 95 | 1004.0 |
| 20260507002505 | 50 | 180 | 7.0 | 17.0 | 0.00 | 0.16 | 0.16 | 95 | 1004.0 |
| 20260507002003 | 50 | 171 | 7.0 | 17.0 | 0.00 | 0.16 | 0.16 | 95 | 1004.2 |
| 20260507001502 | 50 | 169 | 5.0 | 15.0 | 0.00 | 0.16 | 0.16 | 95 | 1004.3 |
| 20260507001004 | 50 | 205 | 6.0 | 15.0 | 0.00 | 0.16 | 0.16 | 95 | 1004.3 |
| 20260507000501 | 50 | 124 | 5.0 | 18.0 | 0.00 | 0.16 | 0.16 | 95 | 1004.2 |
| 20260507000059 | 50 | 194 | 8.0 | 18.0 | 0.00 | 0.16 | 0.16 | 95 | 1004.3 |
| 20260506235559 | 50 | 156 | 7.0 | 15.0 | 0.00 | 0.16 | 0.16 | 95 | 1004.2 |
| 20260506235100 | 50 | 180 | 8.0 | 18.0 | 0.00 | 0.16 | 0.16 | 95 | 1004.3 |
| 20260506234607 | 50 | 164 | 8.0 | 18.0 | 0.00 | 0.16 | 0.16 | 95 | 1004.3 |
| 20260506234058 | 50 | 122 | 7.0 | 17.0 | 0.00 | 0.16 | 0.16 | 95 | 1004.2 |
| 20260506233557 | 50 | 214 | 6.0 | 18.0 | 0.00 | 0.16 | 0.16 | 95 | 1004.2 |
| 20260506233058 | 50 | 175 | 8.0 | 18.0 | 0.00 | 0.16 | 0.16 | 95 | 1004.4 |
| 20260506232556 | 50 | 182 | 8.0 | 18.0 | 0.00 | 0.16 | 0.16 | 95 | 1004.4 |
| 20260506232058 | 51 | 203 | 6.0 | 20.0 | 0.00 | 0.16 | 0.16 | 95 | 1004.6 |
| 20260506231556 | 51 | 169 | 5.0 | 16.0 | 0.00 | 0.16 | 0.16 | 94 | 1004.7 |
| 20260506231054 | 51 | 182 | 8.0 | 16.0 | 0.00 | 0.16 | 0.16 | 94 | 1004.6 |
| 20260506230553 | 51 | 209 | 6.0 | 16.0 | 0.00 | 0.16 | 0.16 | 95 | 1004.6 |
| 20260506230059 | 51 | 194 | 5.0 | 16.0 | 0.00 | 0.16 | 0.16 | 95 | 1004.6 |
| 20260506225552 | 51 | 141 | 6.0 | 16.0 | 0.00 | 0.16 | 0.16 | 95 | 1004.6 |